Weather History for KMPZ - April, 2013

Change the Weather History Date:

Monday, April 1, 2013

  Actual Average Record
Temperature  
Mean Temperature 38 °F -  
Max Temperature 46 °F 56 °F 86 °F (2012)
Min Temperature 31 °F 35 °F 23 °F (1954)
Degree Days  
Heating Degree Days 26    
Moisture  
Dew Point 14 °F    
Average Humidity 41    
Maximum Humidity 66    
Minimum Humidity 16    
Precipitation  
Precipitation 0.00 in - - ()
Sea Level Pressure  
Sea Level Pressure 30.19 in    
Wind  
Wind Speed 12 mph (NW)    
Max Wind Speed 16 mph    
Max Gust Speed 24 mph    
Visibility 10 miles    
Events      
Averages and records for this station are not official NWS values.
T = Trace of Precipitation, MM = Missing Value Source: NWS Daily Summary

Daily Weather History Graph

Daily Weather History Graph

Search for Another Location

Airport or City:

Trip Planner

Search our weather history database for the weather conditions in past years. The results will help you decide how hot, cold, wet, or windy it might be!

Date:

Astronomy

Apr. 01, 2013 Rise Set
Actual Time 6:48 AM CDT 7:31 PM CDT
Civil Twilight 6:21 AM CDT 7:59 PM CDT
Nautical Twilight 5:48 AM CDT 8:31 PM CDT
Astronomical Twilight 5:14 AM CDT 9:05 PM CDT
Moon 12:41 AM CDT (4/1) 10:34 AM CDT (4/1)
Length of Visible Light 13h 37m
Length of Day
12h 42m
Waning Gibbous, 67% of the Moon is Illuminated
Apr 1
Waning Gibbous
Apr 2
Last Quarter
Apr 10
New
Apr 18
First Quarter
Apr 25
Full

Hourly Weather History & Observations

Time (CDT) Temp. Windchill Dew Point Humidity Pressure Visibility Wind Dir Wind Speed Gust Speed Precip Events Conditions
12:15 AM 41.2 °F 33.4 °F 19.4 °F 42% 30.04 in 10.0 mi NW 15.0 mph 21.9 mph N/A   Overcast
12:35 AM 40.6 °F 33.4 °F 18.7 °F 41% 30.04 in 10.0 mi NW 12.7 mph 20.7 mph N/A   Overcast
12:55 AM 40.1 °F 33.6 °F 19.8 °F 44% 30.06 in 10.0 mi NW 10.4 mph 20.7 mph N/A   Overcast
1:15 AM 39.6 °F 31.0 °F 20.7 °F 47% 30.06 in 10.0 mi NW 16.1 mph 20.7 mph N/A   Overcast
1:35 AM 39.2 °F 31.2 °F 21.4 °F 49% 30.07 in 10.0 mi NW 13.8 mph 19.6 mph N/A   Overcast
2:15 AM 37.8 °F 29.0 °F 21.2 °F 51% 30.07 in 10.0 mi NNW 15.0 mph 20.7 mph N/A   Overcast
2:35 AM 37.4 °F 28.2 °F 21.4 °F 52% 30.07 in 10.0 mi NNW 16.1 mph 24.2 mph N/A   Overcast
2:55 AM 37.0 °F 28.9 °F 22.6 °F 56% 30.09 in 10.0 mi NW 12.7 mph 18.4 mph N/A   Overcast
3:15 AM 35.6 °F 26.6 °F 22.1 °F 58% 30.09 in 10.0 mi NW 13.8 mph 17.3 mph N/A   Mostly Cloudy
3:35 AM 34.2 °F 24.8 °F 21.0 °F 59% 30.10 in 10.0 mi NW 13.8 mph 19.6 mph N/A   Scattered Clouds
4:15 AM 33.4 °F 25.4 °F 20.8 °F 60% 30.10 in 10.0 mi NW 10.4 mph 19.6 mph N/A   Clear
4:35 AM 32.7 °F 26.4 °F 21.0 °F 62% 30.11 in 10.0 mi NW 6.9 mph - N/A   Clear
4:55 AM 32.2 °F 25.8 °F 21.2 °F 64% 30.12 in 10.0 mi NW 6.9 mph - N/A   Clear
5:15 AM 32.0 °F 23.6 °F 21.0 °F 64% 30.13 in 10.0 mi NW 10.4 mph - N/A   Clear
5:35 AM 32.0 °F 23.0 °F 20.5 °F 63% 30.13 in 10.0 mi NW 11.5 mph - N/A   Clear
5:55 AM 32.0 °F 24.8 °F 20.7 °F 63% 30.14 in 10.0 mi NW 8.1 mph - N/A   Clear
6:15 AM 31.5 °F 22.9 °F 20.7 °F 64% 30.15 in 10.0 mi NW 10.4 mph - N/A   Clear
6:35 AM 31.1 °F 23.7 °F 20.8 °F 66% 30.16 in 10.0 mi WNW 8.1 mph - N/A   Clear
6:55 AM 31.1 °F 23.1 °F 20.7 °F 65% 30.17 in 10.0 mi NW 9.2 mph - N/A   Clear
7:15 AM 31.1 °F 23.1 °F 20.3 °F 64% 30.18 in 10.0 mi NW 9.2 mph - N/A   Clear
7:35 AM 31.6 °F 23.7 °F 20.3 °F 63% 30.19 in 10.0 mi WNW 9.2 mph - N/A   Clear
8:15 AM 32.5 °F 22.7 °F 20.1 °F 60% 30.21 in 10.0 mi NW 13.8 mph 18.4 mph N/A   Clear
8:35 AM 33.1 °F 23.4 °F 19.6 °F 58% 30.21 in 10.0 mi NNW 13.8 mph 20.7 mph N/A   Clear
8:55 AM 33.8 °F 23.5 °F 19.2 °F 55% 30.22 in 10.0 mi NNW 16.1 mph 19.6 mph N/A   Clear
9:15 AM 34.3 °F 25.5 °F 18.7 °F 53% 30.23 in 10.0 mi NW 12.7 mph 17.3 mph N/A   Clear
9:35 AM 34.7 °F 25.5 °F 18.9 °F 52% 30.23 in 10.0 mi NNW 13.8 mph 18.4 mph N/A   Clear
9:55 AM 36.0 °F 28.0 °F 19.2 °F 51% 30.23 in 10.0 mi NNW 11.5 mph 18.4 mph N/A   Clear
10:15 AM 36.7 °F 29.4 °F 16.9 °F 45% 30.24 in 10.0 mi NW 10.4 mph 18.4 mph N/A   Clear
10:35 AM 38.5 °F 32.1 °F 16.3 °F 41% 30.24 in 10.0 mi WNW 9.2 mph 16.1 mph N/A   Scattered Clouds
10:55 AM 38.5 °F 30.7 °F 14.7 °F 38% 30.24 in 10.0 mi NNW 12.7 mph 19.6 mph N/A   Scattered Clouds
11:15 AM 39.6 °F 33.0 °F 14.5 °F 36% 30.24 in 10.0 mi WNW 10.4 mph 18.4 mph N/A   Clear
11:35 AM 40.1 °F 33.2 °F 15.1 °F 36% 30.24 in 10.0 mi NW 11.5 mph - N/A   Scattered Clouds
11:55 AM 40.8 °F 33.7 °F 13.6 °F 33% 30.24 in 10.0 mi NNW 12.7 mph 19.6 mph N/A   Clear
12:15 PM 41.0 °F 33.5 °F 11.8 °F 30% 30.24 in 10.0 mi WNW 13.8 mph 21.9 mph N/A   Clear
12:35 PM 42.8 °F 36.6 °F 9.5 °F 26% 30.24 in 10.0 mi NNW 11.5 mph 21.9 mph N/A   Clear
12:55 PM 43.0 °F 36.4 °F 7.2 °F 23% 30.23 in 10.0 mi NNW 12.7 mph 23.0 mph N/A   Clear
1:15 PM 43.9 °F 36.8 °F 2.1 °F 18% 30.23 in 10.0 mi NNW 15.0 mph 20.7 mph N/A   Clear
1:35 PM 44.6 °F 37.4 °F 7.7 °F 22% 30.23 in 10.0 mi NW 16.1 mph 24.2 mph N/A   Clear
1:55 PM 44.2 °F 37.3 °F 6.1 °F 21% 30.23 in 10.0 mi NW 15.0 mph 23.0 mph N/A   Clear
2:15 PM 44.4 °F 37.9 °F 1.6 °F 17% 30.22 in 10.0 mi NW 13.8 mph 19.6 mph N/A   Clear
2:35 PM 44.8 °F 38.3 °F 5.4 °F 20% 30.22 in 10.0 mi NW 13.8 mph 18.4 mph N/A   Clear
2:55 PM 45.7 °F 39.8 °F 2.5 °F 17% 30.22 in 10.0 mi NW 12.7 mph 20.7 mph N/A   Clear
3:15 PM 46.0 °F 39.9 °F 3.2 °F 17% 30.21 in 10.0 mi NNW 13.8 mph 24.2 mph N/A   Clear
3:35 PM 46.2 °F 39.5 °F 4.6 °F 18% 30.21 in 10.0 mi NNW 16.1 mph 20.7 mph N/A   Clear
3:55 PM 46.0 °F 39.3 °F 3.6 °F 17% 30.21 in 10.0 mi NNW 16.1 mph 21.9 mph N/A   Clear
4:15 PM 45.9 °F 40.0 °F 2.1 °F 16% 30.21 in 10.0 mi NW 12.7 mph 20.7 mph N/A   Clear
4:35 PM 45.7 °F 39.8 °F 5.0 °F 19% 30.21 in 10.0 mi NNW 12.7 mph 23.0 mph N/A   Clear
4:55 PM 46.0 °F 41.0 °F 2.8 °F 17% 30.21 in 10.0 mi NW 10.4 mph 23.0 mph N/A   Clear
5:15 PM 45.7 °F 39.8 °F 3.4 °F 18% 30.21 in 10.0 mi NW 12.7 mph - N/A   Clear
5:35 PM 45.5 °F 38.6 °F 6.4 °F 20% 30.21 in 10.0 mi NNW 16.1 mph 21.9 mph N/A   Clear
5:55 PM 44.8 °F 39.0 °F 7.0 °F 21% 30.22 in 10.0 mi NNW 11.5 mph 20.7 mph N/A   Clear
6:15 PM 44.1 °F 37.7 °F 7.2 °F 22% 30.22 in 10.0 mi NNW 12.7 mph - N/A   Clear
6:35 PM 43.3 °F 36.5 °F 7.7 °F 23% 30.22 in 10.0 mi NNW 13.8 mph 18.4 mph N/A   Clear
6:55 PM 42.4 °F 35.7 °F 9.9 °F 26% 30.22 in 10.0 mi NW 12.7 mph - N/A   Clear
7:15 PM 41.4 °F 34.7 °F 9.9 °F 28% 30.22 in 10.0 mi NNW 11.5 mph - N/A   Clear
7:35 PM 40.1 °F 33.6 °F 11.8 °F 32% 30.23 in 10.0 mi NNW 10.4 mph - N/A   Clear
7:55 PM 39.0 °F 33.4 °F 11.7 °F 33% 30.23 in 10.0 mi NW 8.1 mph - N/A   Clear
8:15 PM 37.9 °F 31.5 °F 13.8 °F 37% 30.23 in 10.0 mi NNW 9.2 mph - N/A   Clear
8:35 PM 37.4 °F 32.8 °F 14.5 °F 39% 30.24 in 10.0 mi NW 5.8 mph - N/A   Clear
8:55 PM 36.7 °F 31.2 °F 14.7 °F 41% 30.24 in 10.0 mi NW 6.9 mph - N/A   Clear
9:15 PM 36.1 °F 30.6 °F 15.1 °F 42% 30.25 in 10.0 mi NW 6.9 mph - N/A   Clear
9:35 PM 35.6 °F 29.9 °F 15.8 °F 44% 30.25 in 10.0 mi NW 6.9 mph - N/A   Clear
9:55 PM 34.7 °F 29.6 °F 16.5 °F 48% 30.26 in 10.0 mi NW 5.8 mph - N/A   Clear
10:15 PM 33.8 °F 27.0 °F 17.2 °F 51% 30.26 in 10.0 mi NNW 8.1 mph - N/A   Clear
10:35 PM 34.2 °F 28.2 °F 16.3 °F 48% 30.26 in 10.0 mi NW 6.9 mph - N/A   Clear
10:55 PM 33.4 °F 29.1 °F 16.5 °F 50% 30.27 in 10.0 mi NW 4.6 mph - N/A   Clear
11:15 PM 33.3 °F 27.9 °F 16.7 °F 51% 30.27 in 10.0 mi NW 5.8 mph - N/A   Clear
11:35 PM 33.4 °F 28.1 °F 16.7 °F 50% 30.27 in 10.0 mi NW 5.8 mph - N/A   Clear
11:55 PM 33.8 °F 27.0 °F 16.3 °F 49% 30.27 in 10.0 mi NW 8.1 mph - N/A   Clear